Regional Weather Roundup
Issued by NWS

Home | Current Version | Previous Version | Text Only | Print | Product List | Glossary Off
Versions: 1 2 3 4 5 6 7 8 9 10 11 12 13 14 15 16 17 18 19 20 21 22 23 24 25 26 27 28 29 30 31 32 33 34 35 36 37 38 39 40 41 42 43 44 45 46 47 48 49

000
ASUS43 KDMX 300907
RWRIA

WEATHER ROUNDUP FOR IOWA
NATIONAL WEATHER SERVICE DES MOINES IA
400 AM CDT TUE SEP 30 2014

NOTE: "FAIR" INDICATES FEW OR NO CLOUDS BELOW 12,000 FEET WITH NO
SIGNIFICANT WEATHER AND/OR OBSTRUCTIONS TO VISIBILITY.

* - THESE STATIONS ARE NOT NWS STATIONS...THUS NOT UNDER NWS
QUALITY CONTROL.  THEY ALSO DO NOT REPORT WEATHER SUCH
AS PRECIPITATION OR FOG.

IAZ001>003-012>014-020>022-031>034-043>046-301000-
   NORTHWEST IOWA

CITY           SKY/WX    TMP DP  RH WIND       PRES   REMARKS
CARROLL *      CLOUDY    54  54 100 E7        29.97F
CHEROKEE *     PTCLDY    52  52 100 E3        29.97F
DENISON *      CLOUDY    57  57 100 E8        29.94F
LE MARS *        N/A     55  52  88 E9        29.94F
ORANGE CITY *  PTCLDY    55  50  82 E12       29.95F
SHELDON *      CLOUDY    52  50  93 E12       29.95F
SIOUX CITY     CLOUDY    59  56  89 E9        29.91F
SPENCER        CLEAR     51  48  89 E13       29.99F
STORM LAKE *   PTCLDY    52  50  93 E10       29.98F
$$

IAZ055>058-069>071-079>083-090>094-301000-
   SOUTHWEST IOWA

CITY           SKY/WX    TMP DP  RH WIND       PRES   REMARKS
ATLANTIC *     PTCLDY    61  59  94 E6        29.95F
AUDUBON *      CLOUDY    57  52  82 E5        29.98F
CLARINDA *     PTCLDY    55  55 100 N5        29.95F FOG
COUNCIL BLFS *   N/A     61  61 100 E9        29.91F FOG
CRESTON *      MOCLDY    59  59 100 E7        29.97F FOG
HARLAN  *      PTCLDY    59  59 100 E6        29.98F FOG
LAMONI         CLEAR     60  58  92 NE5       29.97F FOG
RED OAK *      CLEAR     63  61  94 E6        29.93F FOG
SHENANDOAH *   CLEAR     61  57  88 NE7       29.93F
$$

IAZ047>049-059>061-072>074-084-301000-
   CENTRAL IOWA

CITY           SKY/WX    TMP DP  RH WIND       PRES   REMARKS
AMES           CLOUDY    55  52  89 E7        30.00F
ANKENY *       CLOUDY    55  55 100 E5        29.99F
CHARITON *     PTCLDY    59  59 100 NE6       29.98F FOG
DES MOINES     PTCLDY    59  55  87 E7        29.98F
GRINNELL*      CLOUDY    55  54  94 NE9       30.01S
KNOXVILLE *    CLOUDY    59  55  88 E8        29.98F
MARSHALLTOWN   CLOUDY    55  52  89 E10       30.01F
PELLA *        PTCLDY    57  55  94 E5        30.01S
PERRY *          N/A     55  54  94 E5        29.99F
$$

IAZ004>006-015-016-023>025-035-036-301000-
   NORTH CENTRAL IOWA

CITY           SKY/WX    TMP DP  RH WIND       PRES   REMARKS
ALGONA *       MOCLDY    50  48  93 E6        30.01F
CLARION *      PTCLDY    50  50 100 E8        30.01S
ESTHERVILLE    PTCLDY    48  47  96 E8        30.00F
FORT DODGE *   CLEAR     52  48  87 E6        30.01F
MASON CITY     CLOUDY    49  47  93 E9        30.05F
FOREST CITY *  CLEAR     48  48 100 E8        30.02F
IOWA FALLS *   CLOUDY    54  50  87 E9        30.02F
$$

IAZ007>011-017>019-026>030-037>042-050>054-066-301000-
   NORTHEAST IOWA

CITY           SKY/WX    TMP DP  RH WIND       PRES   REMARKS
CHARLES CITY * CLEAR     48  46  93 E9        30.05F
CLINTON *      CLOUDY    54  48  82 E13       30.06S
DECORAH *      CLOUDY    48  45  87 E10       30.07S
MONTICELLO *   CLOUDY    54  50  87 NE8       30.04S
OELWEIN *      CLOUDY    52  50  93 VRB7      30.05S
WATERLOO       MOCLDY    52  48  86 E10       30.02F
$$

IAZ064-065-067-068-078-301000-
   EAST CENTRAL IOWA

CITY           SKY/WX    TMP DP  RH WIND       PRES   REMARKS
IOWA CITY      CLOUDY    56  53  90 NE12      30.03S
MT. PLEASANT * FOG       61  59  94 NE9       29.99S VSB 1
MUSCATINE *    CLOUDY    59  55  88 NE9       30.01S
$$

IAZ062-063-075>077-085>089-095>099-301000-
   SOUTHEAST IOWA

CITY           SKY/WX    TMP DP  RH WIND       PRES   REMARKS
BURLINGTON     CLOUDY    59  57  93 NE14      29.98S FOG
FAIRFIELD *    CLOUDY    59  57  94 NE10      29.99S
FORT MADISON * PTCLDY    63  59  88 NE8       29.99R FOG
KEOKUK *       CLEAR     61  59  94 NE6       29.97R
OSKALOOSA *    CLOUDY    59  57  94 E10       30.00R FOG
CENTERVILLE *  PTCLDY    59  59 100 NE5       30.00S
OTTUMWA        MOCLDY    59  57  93 E9        29.99S
WASHINGTON *   CLOUDY    57  55  94 NE9G15    30.01R
$$

ABBREVIATIONS USED IN REMARKS
   TC - TEMPERATURES IN CELSIUS
  WCI - WIND CHILL INDEX
   HX - HEAT INDEX
  VSB - VISIBILITY
$$




USA.gov is the U.S. government's official web portal to all federal, state and local government web resources and services.